Location: *
(51.2167°N, 10.0667°E)
Time: 03:28:39
(UTC+00:00)

Cosmos 1867 - Pass Details

Date: 12 December 2019
Orbit: 777 x 799 km, 65.0° (Epoch: 19 January)

Event Time Altitude Azimuth Distance (km) Brightness Sun altitude
Rises 16:57:53 0° 318° (NW) 3,316 7.1 -15.5°
Reaches altitude 10° 17:00:20 10° 320° (NW) 2,382 6.3 -15.8°
Maximum altitude 17:05:49 77° 47° (NE) 824 3.5 -16.7°
Drops below altitude 10° 17:11:16 10° 134° (SE) 2,362 5.7 -17.5°
Enters shadow 17:12:01 - 134° (SE) 2,645 6.0 -17.6°
